EW4819 Weather Reports


time (UTC)temp
F
wind
direction
speed
knots
gust
knots
rain 1hr
in
rain 24hr
in
rain mn
in
humidity
%
barometer
mb
20260507235002 49 93 0.9 2.6 0.00 0.00 0.00 88 1014.1
20260507234502 49 91 0.9 3.5 0.00 0.00 0.00 88 1014.2
20260507234002 49 99 0.9 3.5 0.00 0.00 0.00 88 1014.2
20260507233524 49 88 0.9 5.2 0.00 0.00 0.00 88 1014.3
20260507233024 49 80 0.9 5.2 0.00 0.00 0.00 88 1014.2
20260507232524 48 72 0.9 3.5 0.00 0.00 0.00 88 1014.2
20260507232024 48 83 0.9 3.5 0.00 0.00 0.00 88 1014.3
20260507231503 48 114 0.9 3.5 0.00 0.00 0.00 88 1014.3
20260507231004 48 97 0.9 5.2 0.00 0.00 0.00 87 1014.4
20260507230504 47 88 0.9 5.2 0.00 0.00 0.00 87 1014.4
20260507230005 47 88 0.0 1.7 0.00 0.00 0.00 86 1014.3
20260507225504 47 82 0.0 1.7 0.00 0.00 0.00 86 1014.4
20260507225005 47 73 0.0 1.7 0.00 0.00 0.00 86 1014.5
20260507224503 47 0 0.0 0.0 0.00 0.00 0.00 86 1014.5
20260507224025 48 0 0.0 0.0 0.00 0.00 0.00 85 1014.5
20260507223503 48 0 0.0 0.0 0.00 0.00 0.00 86 1014.5
20260507223003 48 0 0.0 0.0 0.00 0.00 0.00 85 1014.5
20260507222503 48 0 0.0 0.0 0.00 0.00 0.00 85 1014.6
20260507222003 48 0 0.0 0.0 0.00 0.00 0.00 85 1014.6
20260507221503 49 0 0.0 0.9 0.00 0.00 0.00 86 1014.6
20260507221003 49 0 0.0 0.9 0.00 0.00 0.00 86 1014.5
20260507220503 49 86 0.0 0.9 0.00 0.00 0.00 86 1014.6
20260507220003 49 86 0.0 0.9 0.00 0.00 0.00 85 1014.6
20260507215503 48 0 0.0 0.0 0.00 0.00 0.00 85 1014.6
20260507215003 48 0 0.0 0.9 0.00 0.00 0.00 84 1014.6
20260507214503 49 0 0.0 0.9 0.00 0.00 0.00 84 1014.6
20260507214024 49 0 0.0 0.0 0.00 0.00 0.00 84 1014.7
20260507213503 49 86 0.0 0.9 0.00 0.00 0.00 83 1014.6
20260507213003 49 90 0.0 1.7 0.00 0.00 0.00 83 1014.5
20260507212503 49 105 0.0 1.7 0.00 0.00 0.00 83 1014.6
20260507212003 49 137 0.0 1.7 0.00 0.00 0.00 83 1014.5
20260507211503 49 139 0.9 2.6 0.00 0.00 0.00 82 1014.5
20260507211003 49 121 0.9 5.2 0.00 0.00 0.00 82 1014.5
20260507210503 49 111 0.9 5.2 0.00 0.00 0.00 82 1014.5
20260507210024 49 118 0.0 1.7 0.00 0.00 0.00 81 1014.4
20260507205503 49 123 0.0 1.7 0.00 0.00 0.00 81 1014.4
20260507205003 50 137 0.0 1.7 0.00 0.00 0.00 81 1014.4
20260507204524 50 156 0.0 1.7 0.00 0.00 0.00 80 1014.4
20260507204003 50 147 0.9 2.6 0.00 0.00 0.00 80 1014.4
20260507203503 49 135 0.9 2.6 0.00 0.00 0.00 79 1014.3
20260507203003 49 123 0.9 2.6 0.00 0.00 0.00 78 1014.2
20260507202503 49 95 0.9 2.6 0.00 0.00 0.00 77 1014.1
20260507202003 49 85 0.9 2.6 0.00 0.00 0.00 76 1014.1
20260507201503 49 89 0.9 2.6 0.00 0.00 0.00 74 1014.2
20260507201003 49 102 0.0 1.7 0.00 0.00 0.00 73 1014.2
20260507200504 49 102 0.0 1.7 0.00 0.00 0.00 71 1014.3
20260507200025 50 102 0.0 0.9 0.00 0.00 0.00 70 1014.2
20260507195504 50 102 0.0 1.7 0.00 0.00 0.00 68 1014.1
20260507195005 50 107 0.0 1.7 0.00 0.00 0.00 67 1014.0
20260507194505 51 114 0.9 1.7 0.00 0.00 0.00 66 1014.0
20260507194005 51 117 0.9 1.7 0.00 0.00 0.00 65 1014.0
20260507193504 52 120 0.9 1.7 0.00 0.00 0.00 65 1014.0
20260507193003 52 118 0.9 2.6 0.00 0.00 0.00 64 1013.9
20260507192503 52 116 0.9 2.6 0.00 0.00 0.00 63 1013.9
20260507192001 53 115 0.9 2.6 0.00 0.00 0.00 62 1013.8
20260507191501 53 119 0.9 3.5 0.00 0.00 0.00 61 1013.7
20260507191001 54 131 0.9 3.5 0.00 0.00 0.00 60 1013.7
20260507190501 54 133 0.9 6.1 0.00 0.00 0.00 58 1013.6
20260507190002 55 120 1.7 6.1 0.00 0.00 0.00 57 1013.6
20260507185501 55 117 1.7 5.2 0.00 0.00 0.00 56 1013.5
20260507185003 56 121 2.6 6.1 0.00 0.00 0.00 55 1013.5
20260507184501 56 128 1.7 8.7 0.00 0.00 0.00 56 1013.6
20260507184001 57 124 2.6 8.7 0.00 0.00 0.00 55 1013.5
20260507183522 57 113 2.6 7.0 0.00 0.00 0.00 54 1013.5
20260507183001 57 112 2.6 7.0 0.00 0.00 0.00 55 1013.4
20260507182501 58 116 1.7 5.2 0.00 0.00 0.00 56 1013.4
20260507182001 58 108 1.7 6.1 0.00 0.00 0.00 57 1013.4
20260507181501 58 108 1.7 6.1 0.00 0.00 0.00 56 1013.4
20260507181001 58 110 2.6 6.1 0.00 0.00 0.00 58 1013.4
20260507180501 58 116 2.6 6.1 0.00 0.00 0.00 59 1013.4
20260507180022 59 123 2.6 6.1 0.00 0.00 0.00 60 1013.4
20260507175501 59 126 1.7 6.1 0.00 0.00 0.00 59 1013.4
20260507175002 60 111 1.7 6.1 0.00 0.00 0.00 59 1013.4
20260507174522 60 97 1.7 7.0 0.00 0.00 0.00 57 1013.3
20260507174001 60 100 2.6 7.0 0.00 0.00 0.00 57 1013.3
20260507173522 61 106 2.6 6.1 0.00 0.00 0.00 58 1013.3
20260507173022 61 109 2.6 6.1 0.00 0.00 0.00 56 1013.3
20260507172501 61 101 1.7 6.1 0.00 0.00 0.00 59 1013.2
20260507172001 61 105 2.6 7.0 0.00 0.00 0.00 57 1013.2
20260507171503 61 134 2.6 7.0 0.00 0.00 0.00 60 1013.3
20260507171022 61 154 3.5 6.1 0.00 0.00 0.00 58 1013.3
20260507170501 61 152 3.5 7.8 0.00 0.00 0.00 58 1013.3
20260507170002 61 139 2.6 7.8 0.00 0.00 0.00 58 1013.3
20260507165502 61 134 1.7 7.0 0.00 0.00 0.00 58 1013.4
20260507165002 61 132 2.6 7.0 0.00 0.00 0.00 58 1013.3
20260507164502 60 117 2.6 6.1 0.00 0.00 0.00 63 1013.3
20260507164002 59 103 2.6 6.1 0.00 0.00 0.00 63 1013.3
20260507163524 59 119 2.6 6.1 0.00 0.00 0.00 65 1013.4
20260507163002 59 141 2.6 6.1 0.00 0.00 0.00 64 1013.5
20260507162501 59 134 1.7 6.1 0.00 0.00 0.00 64 1013.5
20260507162024 59 133 2.6 7.0 0.00 0.00 0.00 64 1013.5
20260507161501 59 133 2.6 8.7 0.00 0.00 0.00 63 1013.5
20260507161001 59 138 3.5 8.7 0.00 0.00 0.00 63 1013.5
20260507160501 59 137 2.6 7.0 0.00 0.00 0.00 63 1013.5
20260507160001 60 126 2.6 7.0 0.00 0.00 0.00 62 1013.5
20260507155501 60 105 2.6 6.1 0.00 0.00 0.00 62 1013.5
20260507155001 60 107 2.6 7.0 0.00 0.00 0.00 61 1013.5
20260507154501 61 124 2.6 7.0 0.00 0.00 0.00 59 1013.5
20260507154003 61 105 1.7 7.0 0.00 0.00 0.00 60 1013.6
20260507153501 61 49 1.7 6.1 0.00 0.00 0.00 62 1013.5
20260507153001 61 53 2.6 6.1 0.00 0.00 0.00 61 1013.6
20260507152501 60 78 1.7 3.5 0.00 0.00 0.00 63 1013.6
20260507152001 59 108 1.7 3.5 0.00 0.00 0.00 64 1013.7
20260507151501 58 124 0.9 2.6 0.00 0.00 0.00 66 1013.7
20260507151022 58 130 0.9 2.6 0.00 0.00 0.00 66 1013.7
20260507150501 57 148 0.9 2.6 0.00 0.00 0.00 68 1013.7
20260507150022 57 150 0.0 2.6 0.00 0.00 0.00 68 1013.8
20260507145501 57 131 0.0 1.7 0.00 0.00 0.00 69 1013.7
20260507145001 57 124 0.9 1.7 0.00 0.00 0.00 68 1013.7
20260507144501 57 124 0.9 2.6 0.00 0.00 0.00 68 1013.8
20260507144022 57 124 0.9 2.6 0.00 0.00 0.00 68 1013.8
20260507143522 57 124 0.9 1.7 0.00 0.00 0.00 70 1013.9
20260507143022 57 124 0.0 1.7 0.00 0.00 0.00 70 1013.9
20260507142501 57 124 0.9 1.7 0.00 0.00 0.00 70 1014.0
20260507142002 57 124 0.9 1.7 0.00 0.00 0.00 70 1014.1
20260507141501 57 124 0.0 1.7 0.00 0.00 0.00 70 1014.0
20260507141001 57 141 0.9 3.5 0.00 0.00 0.00 70 1014.0
20260507140501 57 161 0.9 3.5 0.00 0.00 0.00 70 1014.1
20260507140001 57 171 0.9 3.5 0.00 0.00 0.00 70 1014.1
20260507135502 57 171 0.0 1.7 0.00 0.00 0.00 70 1014.1
20260507135002 57 172 0.0 1.7 0.00 0.00 0.00 70 1014.1
20260507134502 57 172 0.0 2.6 0.00 0.00 0.00 70 1014.2
20260507134023 57 171 0.9 2.6 0.00 0.00 0.00 70 1014.2
20260507133502 57 174 0.9 2.6 0.00 0.00 0.00 70 1014.1
20260507133004 57 194 0.9 4.3 0.00 0.00 0.00 69 1014.1
20260507132502 57 196 1.7 4.3 0.00 0.00 0.00 68 1014.1
20260507132002 57 192 0.9 4.3 0.00 0.00 0.00 68 1014.2
20260507131502 57 186 0.9 2.6 0.00 0.00 0.00 68 1014.2
20260507131002 58 187 1.7 5.2 0.00 0.00 0.00 67 1014.2
20260507130502 58 193 1.7 5.2 0.00 0.00 0.00 66 1014.2
20260507130002 58 179 2.6 5.2 0.00 0.00 0.00 65 1014.2
20260507125502 58 166 1.7 5.2 0.00 0.00 0.00 63 1014.2
20260507125001 58 172 0.9 3.5 0.00 0.00 0.00 60 1014.2
20260507124502 58 188 1.7 4.3 0.00 0.00 0.00 60 1014.2
20260507124002 58 181 2.6 4.3 0.00 0.00 0.00 60 1014.1
20260507123523 58 169 2.6 7.0 0.00 0.00 0.00 59 1014.2
20260507123002 59 171 3.5 7.0 0.00 0.00 0.00 59 1014.2
20260507122523 59 165 2.6 7.0 0.00 0.00 0.00 59 1014.2
20260507122001 59 129 2.6 6.1 0.00 0.00 0.00 58 1014.3
20260507121502 60 141 2.6 5.2 0.00 0.00 0.00 56 1014.3
20260507121002 60 155 2.6 7.0 0.00 0.00 0.00 60 1014.2
20260507120501 60 150 3.5 7.0 0.00 0.00 0.00 58 1014.2
20260507120023 61 159 3.5 7.8 0.00 0.00 0.00 59 1014.2
20260507115502 61 160 3.5 7.8 0.00 0.00 0.00 57 1014.2
20260507115002 62 150 2.6 7.0 0.00 0.00 0.00 57 1014.2
20260507114503 63 148 3.5 7.8 0.00 0.00 0.00 59 1014.2
20260507114023 63 158 3.5 7.8 0.00 0.00 0.00 62 1014.1
20260507113502 62 154 3.5 7.0 0.00 0.00 0.00 59 1014.1
20260507113002 61 129 2.6 6.1 0.00 0.00 0.00 63 1014.2
20260507112502 60 131 3.5 9.6 0.00 0.00 0.00 65 1014.2
20260507112023 60 130 2.6 9.6 0.00 0.00 0.00 64 1014.3
20260507111503 59 135 1.7 5.2 0.00 0.00 0.00 62 1014.3
20260507111002 59 132 2.6 7.0 0.00 0.00 0.00 64 1014.3
20260507110523 58 123 2.6 7.0 0.00 0.00 0.00 63 1014.4
20260507110002 58 130 1.7 6.1 0.00 0.00 0.00 65 1014.4
20260507105502 58 131 1.7 5.2 0.00 0.00 0.00 66 1014.4
20260507105002 58 147 1.7 5.2 0.00 0.00 0.00 66 1014.4
20260507104502 58 158 2.6 7.8 0.00 0.00 0.00 65 1014.4
20260507104003 58 161 3.5 7.8 0.00 0.00 0.00 65 1014.4
20260507103502 58 149 3.5 6.1 0.00 0.00 0.00 65 1014.4
20260507103024 58 138 2.6 6.1 0.00 0.00 0.00 63 1014.4
20260507102502 58 162 2.6 7.0 0.00 0.00 0.00 64 1014.4
20260507102002 58 163 2.6 7.0 0.00 0.00 0.00 64 1014.4
20260507101502 59 144 0.9 4.3 0.00 0.00 0.00 64 1014.5
20260507101002 59 155 1.7 7.0 0.00 0.00 0.00 64 1014.5
20260507100502 59 143 2.6 7.0 0.00 0.00 0.00 65 1014.4
20260507100002 59 135 2.6 6.1 0.00 0.00 0.00 65 1014.4
20260507095502 59 150 2.6 7.0 0.00 0.00 0.00 66 1014.4
20260507095002 59 146 2.6 7.0 0.00 0.00 0.00 64 1014.5
20260507094502 59 129 2.6 7.0 0.00 0.00 0.00 64 1014.4
20260507094023 59 133 2.6 7.0 0.00 0.00 0.00 67 1014.4
20260507093502 58 110 0.9 3.5 0.00 0.00 0.00 68 1014.4
20260507093002 58 114 1.7 3.5 0.00 0.00 0.00 66 1014.4
20260507092502 59 150 1.7 4.3 0.00 0.00 0.00 66 1014.4
20260507092002 59 149 2.6 7.0 0.00 0.00 0.00 66 1014.4
20260507091502 58 142 2.6 7.0 0.00 0.00 0.00 67 1014.4
20260507091023 58 120 1.7 6.1 0.00 0.00 0.00 67 1014.4
20260507090523 58 146 2.6 7.0 0.00 0.00 0.00 66 1014.4
20260507090002 58 154 2.6 7.0 0.00 0.00 0.00 68 1014.5
20260507085523 58 105 1.7 5.2 0.00 0.00 0.00 66 1014.5
20260507085002 59 133 1.7 5.2 0.00 0.00 0.00 67 1014.6
20260507084502 58 160 2.6 5.2 0.00 0.00 0.00 69 1014.6
20260507084002 58 176 2.6 7.0 0.00 0.00 0.00 69 1014.5
20260507083523 58 179 2.6 7.0 0.00 0.00 0.00 70 1014.5
20260507083002 58 188 1.7 7.0 0.00 0.00 0.00 71 1014.4
20260507082502 58 189 2.6 8.7 0.00 0.00 0.00 72 1014.5
20260507082002 57 195 2.6 8.7 0.00 0.00 0.00 73 1014.5
20260507081502 57 208 1.7 3.5 0.00 0.00 0.00 73 1014.4
20260507081002 57 194 1.7 3.5 0.00 0.00 0.00 73 1014.5
20260507080523 57 201 1.7 5.2 0.00 0.00 0.00 74 1014.5
20260507080002 57 186 1.7 5.2 0.00 0.00 0.00 73 1014.4
20260507075502 56 166 1.7 5.2 0.00 0.00 0.00 73 1014.4
20260507075002 56 136 2.6 6.1 0.00 0.00 0.00 73 1014.4
20260507074504 56 115 2.6 6.1 0.00 0.00 0.00 73 1014.4
20260507074024 56 111 2.6 6.1 0.00 0.00 0.00 74 1014.4
20260507073524 56 127 2.6 7.0 0.00 0.00 0.00 75 1014.3
20260507073003 55 139 2.6 7.0 0.00 0.00 0.00 77 1014.4
20260507072503 54 147 1.7 6.1 0.00 0.00 0.00 80 1014.3
20260507072024 53 125 1.7 7.0 0.00 0.00 0.00 82 1014.2
20260507071505 52 85 1.7 7.0 0.00 0.00 0.00 83 1014.2
20260507071003 51 120 1.7 4.3 0.00 0.00 0.00 85 1014.2
20260507070503 50 192 1.7 4.3 0.00 0.00 0.00 87 1014.3
20260507070003 50 172 1.7 4.3 0.00 0.00 0.00 88 1014.3
20260507065502 49 63 1.7 4.3 0.00 0.00 0.00 89 1014.2
20260507065002 49 54 1.7 4.3 0.00 0.00 0.00 90 1014.1
20260507064523 48 58 0.9 3.5 0.00 0.00 0.00 91 1014.1
20260507064002 47 69 0.9 3.5 0.00 0.00 0.00 91 1014.1
20260507063502 47 76 0.9 3.5 0.00 0.00 0.00 91 1014.1
20260507063002 46 69 0.9 3.5 0.00 0.00 0.00 91 1014.2
20260507062504 46 62 1.7 3.5 0.00 0.00 0.00 91 1014.2
20260507062002 45 61 0.9 3.5 0.00 0.00 0.00 92 1014.2
20260507061502 45 54 0.9 3.5 0.00 0.00 0.00 92 1014.2
20260507061002 45 44 0.9 3.5 0.00 0.00 0.00 92 1014.2
20260507060502 44 359 0.0 1.7 0.00 0.00 0.00 92 1014.2
20260507060002 43 6 0.0 0.9 0.00 0.00 0.00 92 1014.1
20260507055502 43 0 0.0 0.0 0.00 0.00 0.00 91 1014.1
20260507055002 42 0 0.0 0.0 0.00 0.00 0.00 91 1014.1
20260507054502 42 0 0.0 0.0 0.00 0.00 0.00 91 1014.1
20260507054002 41 0 0.0 0.0 0.00 0.00 0.00 91 1014.1
20260507053502 41 0 0.0 0.0 0.00 0.00 0.00 91 1014.1
20260507053003 40 0 0.0 0.0 0.00 0.00 0.00 91 1014.1
20260507052502 40 0 0.0 0.0 0.00 0.00 0.00 91 1014.1
20260507052023 40 5 0.0 0.9 0.00 0.00 0.00 91 1014.0
20260507051523 40 5 0.0 0.9 0.00 0.00 0.00 91 1014.0
20260507051023 39 0 0.0 0.9 0.00 0.00 0.00 91 1014.0
20260507050502 39 0 0.0 0.0 0.00 0.00 0.00 91 1014.0
20260507050002 39 0 0.0 0.0 0.00 0.00 0.00 90 1014.0
20260507045502 39 0 0.0 0.9 0.00 0.00 0.00 90 1013.9
20260507045002 39 0 0.0 0.9 0.00 0.00 0.00 90 1013.9
20260507044502 39 0 0.0 0.0 0.00 0.00 0.00 90 1013.9
20260507044002 38 0 0.0 0.0 0.00 0.00 0.00 90 1013.9
20260507043502 38 5 0.0 0.9 0.00 0.00 0.00 90 1013.9
20260507043003 38 5 0.0 0.9 0.00 0.00 0.00 90 1013.9
20260507042504 38 0 0.0 0.9 0.00 0.00 0.00 90 1013.8
20260507042004 38 0 0.0 0.0 0.00 0.00 0.00 90 1013.9
20260507041524 38 0 0.0 0.0 0.00 0.00 0.00 90 1013.9
20260507041003 38 0 0.0 0.0 0.00 0.00 0.00 90 1013.9
20260507040503 37 0 0.0 0.0 0.00 0.00 0.00 90 1013.9
20260507040003 37 0 0.0 0.0 0.00 0.00 0.00 90 1013.9
20260507035502 37 0 0.0 0.0 0.00 0.00 0.00 90 1013.9
20260507035004 37 0 0.0 0.0 0.00 0.00 0.00 90 1013.9
20260507034502 37 0 0.0 0.0 0.00 0.00 0.00 90 1013.9
20260507034002 36 0 0.0 0.0 0.00 0.00 0.00 89 1013.9
20260507033502 36 0 0.0 0.0 0.00 0.00 0.00 89 1013.9
20260507033002 36 0 0.0 0.0 0.00 0.00 0.00 90 1013.9
20260507032502 36 0 0.0 0.0 0.00 0.00 0.00 90 1013.9
20260507032002 36 0 0.0 0.0 0.00 0.00 0.00 89 1013.9
20260507031502 36 0 0.0 0.0 0.00 0.00 0.00 89 1013.9
20260507031002 36 0 0.0 0.0 0.00 0.00 0.00 89 1013.9
20260507030502 36 0 0.0 0.0 0.00 0.00 0.00 89 1013.8
20260507030024 36 0 0.0 0.0 0.00 0.00 0.00 89 1013.8
20260507025502 36 5 0.0 0.9 0.00 0.00 0.00 89 1013.8
20260507025002 36 5 0.0 0.9 0.00 0.00 0.00 88 1013.8
20260507024502 36 0 0.0 0.0 0.00 0.00 0.00 88 1013.7
20260507024002 36 0 0.0 0.0 0.00 0.00 0.00 88 1013.7
20260507023502 36 0 0.0 0.0 0.00 0.00 0.00 88 1013.7
20260507023002 36 0 0.0 0.0 0.00 0.00 0.00 88 1013.7
20260507022502 36 0 0.0 0.0 0.00 0.00 0.00 88 1013.7
20260507022002 36 0 0.0 0.0 0.00 0.00 0.00 88 1013.7
20260507021502 37 0 0.0 0.0 0.00 0.00 0.00 88 1013.7
20260507021002 37 0 0.0 0.0 0.00 0.00 0.00 88 1013.7
20260507020502 37 0 0.0 0.0 0.00 0.00 0.00 88 1013.7
20260507020003 37 0 0.0 0.0 0.00 0.00 0.00 88 1013.7
20260507015523 37 0 0.0 0.0 0.00 0.00 0.00 88 1013.7
20260507015004 37 0 0.0 0.0 0.00 0.00 0.00 88 1013.6
20260507014523 37 0 0.0 0.0 0.00 0.00 0.00 88 1013.6
20260507014003 37 0 0.0 0.0 0.00 0.00 0.00 87 1013.5
20260507013502 38 0 0.0 0.0 0.00 0.00 0.00 87 1013.5
20260507013023 38 0 0.0 0.0 0.00 0.00 0.00 87 1013.5
20260507012502 38 0 0.0 0.0 0.00 0.00 0.00 87 1013.6
20260507012002 38 0 0.0 0.0 0.00 0.00 0.00 87 1013.6
20260507011504 38 0 0.0 0.0 0.00 0.00 0.00 87 1013.6
20260507011003 38 0 0.0 0.0 0.00 0.00 0.00 87 1013.6
20260507010504 38 0 0.0 0.0 0.00 0.00 0.00 86 1013.6
20260507010004 38 0 0.0 0.0 0.00 0.00 0.00 86 1013.6
20260507005504 38 0 0.0 0.0 0.00 0.00 0.00 86 1013.6
20260507005004 38 0 0.0 0.0 0.00 0.00 0.00 86 1013.6
20260507004503 39 0 0.0 0.0 0.00 0.00 0.00 86 1013.6
20260507004023 39 0 0.0 0.0 0.00 0.00 0.00 86 1013.6
20260507003503 39 0 0.0 0.0 0.00 0.00 0.00 86 1013.7
20260507003004 40 0 0.0 0.0 0.00 0.00 0.00 86 1013.6
20260507002503 40 0 0.0 0.0 0.00 0.00 0.00 85 1013.7
20260507002003 40 0 0.0 0.0 0.00 0.00 0.00 85 1013.6
20260507001524 40 0 0.0 0.0 0.00 0.00 0.00 85 1013.6
20260507001003 40 0 0.0 0.0 0.00 0.00 0.00 85 1013.6
20260507000504 40 0 0.0 0.0 0.00 0.00 0.00 85 1013.6
20260507000025 41 0 0.0 0.0 0.00 0.00 0.00 84 1013.6
20260506235503 41 0 0.0 0.0 0.00 0.00 0.00 84 1013.6